Weather History for Messina, Italy

Change the Weather History Date:

Saturday, November 16, 2013

  Actual Average (LICR) Record (LICR)
Temperature  
Mean Temperature 64 °F -  
Max Temperature 69 °F 63 °F 78 °F (2005)
Min Temperature 60 °F 54 °F 51 °F (2004)
Growing Degree Days 14 (Base 50)    
Moisture  
Dew Point 54 °F    
Average Humidity 67    
Maximum Humidity 82    
Minimum Humidity 43    
Precipitation  
Precipitation 0.00 in 0.15 in - ()
Sea Level Pressure  
Sea Level Pressure 29.98 in    
Wind  
Wind Speed 5 mph ()    
Max Wind Speed 10 mph    
Max Gust Speed -    
Visibility 6.4 miles    
Events      
Averages and records for this station are not official NWS values.
T = Trace of Precipitation, MM = Missing Value Source: Averaged Metar Reports

Daily Weather History Graph

Daily Weather History Graph

Search for Another Location

Airport:

Trip Planner

Search our weather history database for the weather conditions in past years. The results will help you decide how hot, cold, wet, or windy it might be!

Date:

Astronomy

Nov. 16, 2013 Rise Set
Actual Time 6:39 AM CET 4:44 PM CET
Civil Twilight 6:11 AM CET 5:13 PM CET
Nautical Twilight 5:39 AM CET 5:44 PM CET
Astronomical Twilight 5:08 AM CET 6:16 PM CET
Moon 4:07 PM CET (11/16) 5:19 AM CET (11/16)
Length of Visible Light 11h 01m
Length of Day
10h 04m
Waxing Gibbous, 99% of the Moon is Illuminated
Nov 16
Waxing Gibbous
Nov 17
Full
Nov 25
Last Quarter
Dec 3
New
Dec 9
First Quarter

Hourly Weather History & Observations

Time (CET) Temp. Dew Point Humidity Pressure Visibility Wind Dir Wind Speed Gust Speed Precip Events Conditions
12:00 AM 61 °F 55 °F 74% 29.90 in 6 mi WSW 10.4 mph - -   Overcast
12:55 AM 60.8 °F 55.4 °F 82% 29.89 in 6.2 mi WSW 5.8 mph - N/A   Partly Cloudy
1:00 AM 61 °F 55 °F 73% 29.90 in 6 mi WSW 5.8 mph - -   Partly Cloudy
1:55 AM 62.6 °F 55.4 °F 77% 29.89 in 6.2 mi WSW 4.6 mph - N/A   Partly Cloudy
2:00 AM 62 °F 56 °F 73% 29.90 in 6 mi WSW 4.6 mph - -   Scattered Clouds
2:55 AM 62.6 °F 55.4 °F 77% 29.89 in 6.2 mi West 3.5 mph - N/A   Partly Cloudy
3:00 AM 62 °F 56 °F 73% 29.91 in 6 mi West 3.5 mph - -   Scattered Clouds
3:55 AM 62.6 °F 55.4 °F 77% 29.89 in 6.2 mi WSW 4.6 mph - N/A   Partly Cloudy
4:55 AM 62.6 °F 55.4 °F 77% 29.92 in 6.2 mi WSW 4.6 mph - N/A   Partly Cloudy
5:00 AM 63 °F 54 °F 66% 29.92 in 6 mi WSW 4.6 mph - -   Scattered Clouds
5:55 AM 62.6 °F 55.4 °F 77% 29.92 in - West 5.8 mph - N/A   Clear
6:00 AM 63 °F 54 °F 66% 29.93 in 6 mi West 5.8 mph - -   Scattered Clouds
6:55 AM 60.8 °F 53.6 °F 77% 29.92 in - WSW 4.6 mph - N/A   Clear
7:00 AM 61 °F 53 °F 68% 29.93 in 6 mi WSW 4.6 mph - -   Scattered Clouds
7:55 AM 62.6 °F 55.4 °F 77% 29.95 in 6.2 mi WSW 4.6 mph - N/A   Partly Cloudy
8:00 AM 63 °F 55 °F 67% 29.95 in 12 mi WSW 4.6 mph - -   Scattered Clouds
8:55 AM 64.4 °F 55.4 °F 73% 29.95 in 6.2 mi WSW 5.8 mph - N/A   Partly Cloudy
9:00 AM 65 °F 55 °F 61% 29.96 in 12 mi WSW 5.8 mph - -   Scattered Clouds
9:55 AM 66.2 °F 53.6 °F 64% 29.98 in 6.2 mi SSW 6.9 mph - N/A   Partly Cloudy
10:55 AM 64.4 °F 55.4 °F 73% 29.98 in 6.2 mi SW 5.8 mph - N/A   Scattered Clouds
11:55 AM 66.2 °F 55.4 °F 68% 29.98 in 6.2 mi SW 8.1 mph - N/A   Scattered Clouds
12:00 PM 67 °F 55 °F 57% 29.99 in 6 mi SW 8.1 mph - -   Partly Cloudy
12:55 PM 68.0 °F 51.8 °F 56% 29.98 in 6.2 mi SSW 5.8 mph - N/A   Scattered Clouds
1:00 PM 68 °F 52 °F 47% 29.99 in 6 mi SSW 5.8 mph - -   Partly Cloudy
1:55 PM 68.0 °F 51.8 °F 56% 29.98 in 6.2 mi SSW 4.6 mph - N/A   Partly Cloudy
2:00 PM 69 °F 51 °F 43% 29.99 in 6 mi SSW 4.6 mph - -   Partly Cloudy
2:55 PM 68.0 °F 51.8 °F 56% 29.98 in 6.2 mi NW 3.5 mph - N/A   Scattered Clouds
3:00 PM 68 °F 52 °F 47% 29.99 in 6 mi NW 3.5 mph - -   Partly Cloudy
3:55 PM 68.0 °F 53.6 °F 60% 29.98 in 6.2 mi NNW 4.6 mph - N/A   Scattered Clouds
4:55 PM 66.2 °F 53.6 °F 64% 30.01 in 6.2 mi NW 3.5 mph - N/A   Partly Cloudy
5:00 PM 66 °F 54 °F 56% 30.01 in 6 mi NW 3.5 mph - -   Partly Cloudy
5:55 PM 64.4 °F 55.4 °F 73% 30.01 in 6.2 mi NNW 4.6 mph - N/A   Scattered Clouds
6:00 PM 64 °F 55 °F 64% 30.02 in 6 mi NNW 4.6 mph - -   Partly Cloudy
6:55 PM 64.4 °F 53.6 °F 68% 30.04 in 6.2 mi NW 3.5 mph - N/A   Scattered Clouds
7:00 PM 64 °F 54 °F 62% 30.04 in 6 mi NW 3.5 mph - -   Partly Cloudy
7:55 PM 62.6 °F 53.6 °F 72% 30.04 in 6.2 mi North 3.5 mph - N/A   Scattered Clouds
8:00 PM 63 °F 53 °F 62% 30.06 in 6 mi North 3.5 mph - -   Partly Cloudy
8:55 PM 62.6 °F 53.6 °F 72% 30.06 in 6.2 mi North 4.6 mph - N/A   Scattered Clouds
9:00 PM 63 °F 54 °F 64% 30.07 in 6 mi North 4.6 mph - -   Partly Cloudy
9:55 PM 62.6 °F 53.6 °F 72% 30.06 in 6.2 mi NW 5.8 mph - N/A   Partly Cloudy
10:55 PM 62.6 °F 53.6 °F 72% 30.06 in 6.2 mi NNW 5.8 mph - N/A   Partly Cloudy
11:00 PM 63 °F 54 °F 63% 30.07 in 6 mi NNW 5.8 mph - -   Scattered Clouds
11:55 PM 62.6 °F 53.6 °F 72% 30.06 in 6.2 mi NW 5.8 mph - N/A   Partly Cloudy